Weather History for Moose Lake, MN

Change the Weather History Date:

Monday, January 7, 2013

  Actual Average Record
Temperature  
Mean Temperature 28 °F -  
Max Temperature 41 °F 14 °F 51 °F (2003)
Min Temperature 14 °F -4 °F -37 °F (1982)
Degree Days  
Heating Degree Days 38    
Moisture  
Dew Point 14 °F    
Average Humidity 61    
Maximum Humidity 74    
Minimum Humidity 36    
Precipitation  
Precipitation 0.00 in - - ()
Sea Level Pressure  
Sea Level Pressure 29.80 in    
Wind  
Wind Speed 9 mph (SW)    
Max Wind Speed 15 mph    
Max Gust Speed 22 mph    
Visibility 10 miles    
Events      
Averages and records for this station are not official NWS values.
T = Trace of Precipitation, MM = Missing Value Source: NWS Daily Summary

Daily Weather History Graph

Daily Weather History Graph

Search for Another Location

Airport:

Trip Planner

Search our weather history database for the weather conditions in past years. The results will help you decide how hot, cold, wet, or windy it might be!

Date:

Astronomy

Jan. 07, 2013 Rise Set
Actual Time 7:53 AM CST 4:41 PM CST
Civil Twilight 7:19 AM CST 5:16 PM CST
Nautical Twilight 6:41 AM CST 5:53 PM CST
Astronomical Twilight 6:05 AM CST 6:30 PM CST
Moon 3:14 AM CST (1/7) 12:56 PM CST (1/7)
Length of Visible Light 9h 56m
Length of Day
8h 47m
Waning Crescent, 22% of the Moon is Illuminated
Jan 7
Waning Crescent
Jan 11
New
Jan 18
First Quarter
Jan 26
Full
Feb 3
Last Quarter

Hourly Weather History & Observations

Time (CST) Temp. Windchill Dew Point Humidity Pressure Visibility Wind Dir Wind Speed Gust Speed Precip Events Conditions
12:11 AM 14.0 °F 2.9 °F 5.0 °F 67% 29.91 in 10.0 mi South 8.1 mph - N/A   Clear
12:31 AM 14.0 °F 2.0 °F 5.0 °F 67% 29.91 in 10.0 mi South 9.2 mph - N/A   Clear
12:51 AM 14.0 °F 2.0 °F 5.0 °F 67% 29.89 in 10.0 mi South 9.2 mph - N/A   Clear
1:11 AM 14.0 °F 2.9 °F 6.8 °F 73% 29.87 in 10.0 mi South 8.1 mph - N/A   Clear
1:31 AM 14.0 °F 2.9 °F 6.8 °F 73% 29.84 in 10.0 mi South 8.1 mph - N/A   Clear
1:51 AM 15.8 °F 2.1 °F 8.6 °F 73% 29.82 in 10.0 mi South 12.7 mph 16.1 mph N/A   Clear
2:11 AM 15.8 °F 3.4 °F 8.6 °F 73% 29.83 in 10.0 mi SSW 10.4 mph - N/A   Clear
2:31 AM 15.8 °F 3.4 °F 8.6 °F 73% 29.83 in 10.0 mi SSW 10.4 mph - N/A   Clear
2:51 AM 17.6 °F 6.4 °F 8.6 °F 68% 29.81 in 10.0 mi SSW 9.2 mph - N/A   Clear
3:11 AM 17.6 °F 5.7 °F 8.6 °F 68% 29.80 in 10.0 mi SSW 10.4 mph - N/A   Clear
3:31 AM 17.6 °F 4.3 °F 10.4 °F 73% 29.78 in 10.0 mi SSW 12.7 mph 21.9 mph N/A   Clear
3:51 AM 19.4 °F 7.9 °F 10.4 °F 68% 29.78 in 10.0 mi SSW 10.4 mph - N/A   Clear
4:11 AM 19.4 °F 9.5 °F 10.4 °F 68% 29.78 in 10.0 mi SW 8.1 mph - N/A   Clear
4:51 AM 19.4 °F 7.9 °F 10.4 °F 68% 29.76 in 10.0 mi SSW 10.4 mph 17.3 mph N/A   Clear
5:11 AM 19.4 °F 10.4 °F 10.4 °F 68% 29.77 in 10.0 mi SSW 6.9 mph - N/A   Clear
5:31 AM 19.4 °F 11.5 °F 10.4 °F 68% 29.77 in 10.0 mi SW 5.8 mph - N/A   Clear
5:53 AM 17.6 °F 8.2 °F 10.4 °F 73% 29.76 in 10.0 mi SSW 6.9 mph - N/A   Clear
6:11 AM 19.4 °F 9.5 °F 10.4 °F 68% 29.78 in 10.0 mi WSW 8.1 mph - N/A   Clear
6:31 AM 17.6 °F 7.3 °F 10.4 °F 73% 29.77 in 10.0 mi SSW 8.1 mph - N/A   Clear
6:51 AM 19.4 °F 10.4 °F 12.2 °F 74% 29.76 in 10.0 mi SW 6.9 mph - N/A   Clear
7:11 AM 19.4 °F 9.5 °F 12.2 °F 74% 29.75 in 10.0 mi SW 8.1 mph - N/A   Clear
7:31 AM 21.2 °F 10.9 °F 14.0 °F 74% 29.74 in 10.0 mi SW 9.2 mph - N/A   Clear
7:51 AM 23.0 °F 13.1 °F 14.0 °F 68% 29.74 in 10.0 mi SW 9.2 mph 16.1 mph N/A   Mostly Cloudy
8:11 AM 23.0 °F 13.9 °F 14.0 °F 68% 29.75 in 10.0 mi SW 8.1 mph - N/A   Mostly Cloudy
8:31 AM 23.0 °F 12.4 °F 14.0 °F 68% 29.76 in 10.0 mi SW 10.4 mph - N/A   Overcast
8:51 AM 23.0 °F 11.7 °F 14.0 °F 68% 29.77 in 10.0 mi SW 11.5 mph - N/A   Overcast
9:11 AM 24.8 °F 14.6 °F 14.0 °F 64% 29.77 in 10.0 mi SSW 10.4 mph 16.1 mph N/A   Scattered Clouds
9:31 AM 24.8 °F 14.6 °F 15.8 °F 69% 29.77 in 10.0 mi SSW 10.4 mph - N/A   Clear
9:51 AM 26.6 °F 16.2 °F 15.8 °F 64% 29.77 in 10.0 mi SSW 11.5 mph - N/A   Clear
10:11 AM 28.4 °F 19.1 °F 15.8 °F 59% 29.78 in 10.0 mi SW 10.4 mph - N/A   Clear
10:31 AM 28.4 °F 18.5 °F 15.8 °F 59% 29.79 in 10.0 mi SW 11.5 mph - N/A   Clear
10:51 AM 30.2 °F 21.9 °F 17.6 °F 60% 29.79 in 10.0 mi SSW 9.2 mph - N/A   Clear
11:31 AM 32.0 °F 24.8 °F 17.6 °F 55% 29.77 in 10.0 mi SSW 8.1 mph - N/A   Clear
11:51 AM 33.8 °F 26.4 °F 17.6 °F 52% 29.75 in 10.0 mi SSW 9.2 mph - N/A   Clear
12:31 PM 35.6 °F 26.2 °F 15.8 °F 44% 29.74 in 10.0 mi SW 15.0 mph 18.4 mph N/A   Clear
12:51 PM 37.4 °F 30.8 °F 15.8 °F 41% 29.74 in 10.0 mi WSW 9.2 mph 17.3 mph N/A   Clear
1:11 PM 37.4 °F 29.8 °F 15.8 °F 41% 29.74 in 10.0 mi WSW 11.5 mph 18.4 mph N/A   Clear
1:51 PM 39.2 °F 30.8 °F 15.8 °F 39% 29.75 in 10.0 mi WSW 15.0 mph 19.6 mph N/A   Clear
2:11 PM 41.0 °F 35.2 °F 15.8 °F 36% 29.75 in 10.0 mi West 9.2 mph 20.7 mph N/A   Clear
2:31 PM 39.2 °F 32.0 °F 15.8 °F 39% 29.76 in 10.0 mi WSW 11.5 mph 20.7 mph N/A   Clear
2:51 PM 39.2 °F 31.2 °F 17.6 °F 42% 29.76 in 10.0 mi WSW 13.8 mph - N/A   Clear
3:11 PM 39.2 °F 32.0 °F 17.6 °F 42% 29.77 in 10.0 mi WSW 11.5 mph 18.4 mph N/A   Clear
3:31 PM 37.4 °F 30.3 °F 15.8 °F 41% 29.77 in 10.0 mi SW 10.4 mph - N/A   Clear
3:51 PM 37.4 °F 30.3 °F 17.6 °F 45% 29.77 in 10.0 mi SW 10.4 mph - N/A   Clear
4:11 PM 37.4 °F 30.3 °F 17.6 °F 45% 29.79 in 10.0 mi SW 10.4 mph 18.4 mph N/A   Clear
4:31 PM 35.6 °F 27.1 °F 17.6 °F 48% 29.79 in 10.0 mi SW 12.7 mph 18.4 mph N/A   Clear
4:51 PM 35.6 °F 29.2 °F 17.6 °F 48% 29.79 in 10.0 mi WSW 8.1 mph - N/A   Clear
5:11 PM 35.6 °F 28.0 °F 17.6 °F 48% 29.80 in 10.0 mi SW 10.4 mph - N/A   Clear
5:31 PM 35.6 °F 28.0 °F 17.6 °F 48% 29.80 in 10.0 mi SW 10.4 mph - N/A   Clear
5:51 PM 33.8 °F 26.4 °F 17.6 °F 52% 29.81 in 10.0 mi WSW 9.2 mph - N/A   Clear
6:11 PM 33.8 °F 26.4 °F 17.6 °F 52% 29.82 in 10.0 mi SW 9.2 mph - N/A   Clear
6:31 PM 33.8 °F 26.4 °F 17.6 °F 52% 29.82 in 10.0 mi WSW 9.2 mph - N/A   Clear
6:51 PM 32.0 °F 23.6 °F 17.6 °F 55% 29.82 in 10.0 mi WSW 10.4 mph - N/A   Clear
7:12 PM 32.0 °F 24.2 °F 17.6 °F 55% 29.83 in 10.0 mi WSW 9.2 mph - N/A   Clear
7:31 PM 32.0 °F 25.6 °F 17.6 °F 55% 29.84 in 10.0 mi WSW 6.9 mph - N/A   Clear
7:51 PM 32.0 °F 26.4 °F 17.6 °F 55% 29.84 in 10.0 mi SW 5.8 mph - N/A   Clear
8:11 PM 30.2 °F 25.4 °F 17.6 °F 60% 29.84 in 10.0 mi SW 4.6 mph - N/A   Clear
8:31 PM 30.2 °F 24.3 °F 17.6 °F 60% 29.84 in 10.0 mi SSW 5.8 mph - N/A   Clear
8:51 PM 28.4 °F 23.3 °F 17.6 °F 64% 29.85 in 10.0 mi SW 4.6 mph - N/A   Clear
9:11 PM 28.4 °F 22.2 °F 17.6 °F 64% 29.85 in 10.0 mi SW 5.8 mph - N/A   Clear
9:31 PM 28.4 °F 23.3 °F 17.6 °F 64% 29.86 in 10.0 mi SW 4.6 mph - N/A   Clear
9:51 PM 26.6 °F 22.6 °F 17.6 °F 69% 29.86 in 10.0 mi WSW 3.5 mph - N/A   Clear
10:11 PM 26.6 °F 22.6 °F 17.6 °F 69% 29.87 in 10.0 mi WSW 3.5 mph - N/A   Clear
10:31 PM 26.6 °F - 17.6 °F 69% 29.88 in 10.0 mi Calm Calm - N/A   Clear
10:51 PM 24.8 °F 19.1 °F 17.6 °F 74% 29.89 in 10.0 mi SSW 4.6 mph - N/A   Clear
11:11 PM 23.0 °F 18.4 °F 15.8 °F 74% 29.89 in 10.0 mi WSW 3.5 mph - N/A   Clear
11:31 PM 23.0 °F 18.4 °F 15.8 °F 74% 29.89 in 10.0 mi SW 3.5 mph - N/A   Clear
11:51 PM 23.0 °F - 15.8 °F 74% 29.89 in 10.0 mi Calm Calm - N/A   Clear